Weather History for Hebbronville, TX

Change the Weather History Date:

Tuesday, March 5, 2013

  Actual Average (KLRD) Record (KLRD)
Temperature  
Mean Temperature 60 °F 66 °F  
Max Temperature 70 °F 77 °F 103 °F (1916)
Min Temperature 50 °F 54 °F 29 °F (1917)
Degree Days  
Heating Degree Days 5 4  
Month to date heating degree days 20  
Since 1 July heating degree days 864  
Cooling Degree Days 0 4  
Month to date cooling degree days 19  
Year to date cooling degree days 104  
Growing Degree Days 10 (Base 50)    
Moisture  
Dew Point 31 °F    
Average Humidity 40    
Maximum Humidity 87    
Minimum Humidity 11    
Precipitation  
Precipitation 0.00 in 0.04 in 0.91 in (2005)
Month to date precipitation 0.21  
Year to date precipitation 2.05  
Sea Level Pressure  
Sea Level Pressure 30.14 in    
Wind  
Wind Speed 12 mph (North)    
Max Wind Speed 31 mph    
Max Gust Speed 41 mph    
Visibility 10 miles    
Events      
T = Trace of Precipitation, MM = Missing Value Source: NWS Daily Summary

Daily Weather History Graph

Daily Weather History Graph

Search for Another Location

Airport:

Trip Planner

Search our weather history database for the weather conditions in past years. The results will help you decide how hot, cold, wet, or windy it might be!

Date:

Astronomy

Mar. 05, 2013 Rise Set
Actual Time 6:54 AM CST 6:38 PM CST
Civil Twilight 6:31 AM CST 7:01 PM CST
Nautical Twilight 6:04 AM CST 7:28 PM CST
Astronomical Twilight 5:37 AM CST 7:55 PM CST
Moon 1:45 AM CST (3/5) 12:41 PM CST (3/5)
Length of Visible Light 12h 30m
Length of Day
11h 43m
Last Quarter, 40% of the Moon is Illuminated
Mar 5
Last Quarter
Mar 11
New
Mar 19
First Quarter
Mar 27
Full
Apr 2
Last Quarter

Hourly Weather History & Observations

Time (CST) Temp. Dew Point Humidity Pressure Visibility Wind Dir Wind Speed Gust Speed Precip Events Conditions
12:35 AM 63.1 °F 55.4 °F 76% 29.81 in 10.0 mi SSE 8.1 mph - N/A   Clear
12:55 AM 62.4 °F 55.2 °F 77% 29.81 in 10.0 mi SSE 8.1 mph - N/A   Clear
1:15 AM 62.1 °F 55.2 °F 78% 29.81 in 10.0 mi SSE 9.2 mph - N/A   Clear
1:35 AM 61.7 °F 55.0 °F 79% 29.81 in 10.0 mi South 10.4 mph - N/A   Clear
1:55 AM 61.7 °F 55.2 °F 79% 29.81 in 10.0 mi SSE 10.4 mph - N/A   Clear
2:15 AM 61.2 °F 55.0 °F 80% 29.81 in 10.0 mi South 10.4 mph - N/A   Clear
3:15 AM 59.4 °F 54.3 °F 83% 29.81 in 10.0 mi South 6.9 mph - N/A   Clear
3:35 AM 58.8 °F 54.0 °F 84% 29.81 in 10.0 mi South 6.9 mph - N/A   Clear
3:55 AM 58.3 °F 53.8 °F 85% 29.81 in 10.0 mi SSE 5.8 mph - N/A   Clear
4:15 AM 57.9 °F 53.6 °F 86% 29.82 in 10.0 mi South 8.1 mph - N/A   Clear
4:35 AM 58.1 °F 53.8 °F 86% 29.82 in 10.0 mi South 6.9 mph - N/A   Clear
4:55 AM 58.1 °F 53.6 °F 85% 29.83 in 10.0 mi SSE 6.9 mph - N/A   Clear
5:15 AM 57.2 °F 53.1 °F 86% 29.83 in 10.0 mi South 5.8 mph - N/A   Clear
5:35 AM 56.5 °F 52.7 °F 87% 29.84 in 10.0 mi SSE 5.8 mph - N/A   Clear
6:15 AM 57.9 °F 53.2 °F 84% 29.92 in 10.0 mi NW 12.7 mph 25.3 mph N/A   Scattered Clouds
6:55 AM 60.1 °F 52.5 °F 76% 29.98 in 10.0 mi North 9.2 mph 18.4 mph N/A   Clear
7:15 AM 60.8 °F 52.7 °F 75% 30.00 in 10.0 mi North 8.1 mph - N/A   Clear
7:35 AM 60.8 °F 52.9 °F 75% 30.00 in 10.0 mi North 8.1 mph - N/A   Clear
7:55 AM 61.3 °F 53.2 °F 75% 30.03 in 10.0 mi North 11.5 mph - N/A   Clear
8:15 AM 62.4 °F 54.1 °F 74% 30.06 in 10.0 mi North 19.6 mph 27.6 mph N/A   Mostly Cloudy
8:35 AM 61.9 °F 49.3 °F 63% 30.09 in 7.0 mi North 31.1 mph 41.4 mph N/A   Overcast
8:55 AM 60.1 °F 41.9 °F 51% 30.12 in 7.0 mi North 26.5 mph 32.2 mph N/A   Overcast
9:15 AM 59.4 °F 38.8 °F 47% 30.15 in 7.0 mi North 24.2 mph 35.7 mph N/A   Overcast
9:55 AM 57.6 °F 34.0 °F 41% 30.19 in 7.0 mi North 29.9 mph 38.0 mph N/A   Overcast
10:15 AM 57.7 °F 33.1 °F 39% 30.20 in 10.0 mi North 24.2 mph 32.2 mph N/A   Overcast
10:35 AM 59.0 °F 32.0 °F 36% 30.22 in 10.0 mi North 25.3 mph 31.1 mph N/A   Overcast
10:55 AM 59.7 °F 31.6 °F 35% 30.24 in 10.0 mi North 21.9 mph 31.1 mph N/A   Overcast
11:15 AM 60.8 °F 30.2 °F 31% 30.25 in 10.0 mi North 24.2 mph 29.9 mph N/A   Overcast
11:35 AM 62.6 °F 28.8 °F 28% 30.25 in 10.0 mi North 24.2 mph 32.2 mph N/A   Scattered Clouds
11:55 AM 64.8 °F 27.5 °F 25% 30.26 in 10.0 mi North 24.2 mph 32.2 mph N/A   Clear
12:15 PM 65.3 °F 26.6 °F 23% 30.27 in 10.0 mi North 23.0 mph 34.5 mph N/A   Clear
12:35 PM 66.2 °F 25.7 °F 22% 30.26 in 10.0 mi North 23.0 mph 29.9 mph N/A   Clear
12:55 PM 67.1 °F 25.0 °F 20% 30.25 in 10.0 mi North 23.0 mph 31.1 mph N/A   Clear
1:15 PM 68.4 °F 24.4 °F 19% 30.25 in 10.0 mi North 23.0 mph 26.5 mph N/A   Clear
1:35 PM 68.9 °F 23.5 °F 18% 30.25 in 10.0 mi North 23.0 mph 28.8 mph N/A   Clear
1:55 PM 69.1 °F 22.8 °F 17% 30.25 in 10.0 mi North 17.3 mph 27.6 mph N/A   Clear
2:15 PM 69.6 °F 22.1 °F 17% 30.24 in 10.0 mi North 19.6 mph 26.5 mph N/A   Clear
2:35 PM 69.6 °F 21.7 °F 16% 30.24 in 10.0 mi NNW 17.3 mph 26.5 mph N/A   Clear
2:55 PM 70.0 °F 21.0 °F 16% 30.24 in 10.0 mi North 17.3 mph 24.2 mph N/A   Clear
3:15 PM 69.8 °F 20.5 °F 15% 30.24 in 10.0 mi NNW 16.1 mph 25.3 mph N/A   Clear
3:35 PM 69.3 °F 19.6 °F 15% 30.24 in 10.0 mi NNW 18.4 mph 24.2 mph N/A   Clear
3:55 PM 68.7 °F 18.3 °F 15% 30.24 in 10.0 mi NNW 16.1 mph 23.0 mph N/A   Clear
4:15 PM 68.7 °F 18.0 °F 14% 30.25 in 10.0 mi NNW 16.1 mph 20.7 mph N/A   Clear
4:35 PM 69.1 °F 18.5 °F 15% 30.24 in 10.0 mi North 12.7 mph 20.7 mph N/A   Clear
4:55 PM 69.8 °F 16.9 °F 13% 30.25 in 10.0 mi North 15.0 mph - N/A   Clear
5:15 PM 69.6 °F 15.1 °F 12% 30.25 in 10.0 mi North 12.7 mph 18.4 mph N/A   Clear
5:35 PM 68.7 °F 14.5 °F 12% 30.25 in 10.0 mi North 11.5 mph - N/A   Clear
5:55 PM 68.4 °F 12.7 °F 12% 30.25 in 10.0 mi North 13.8 mph 17.3 mph N/A   Clear
6:15 PM 67.8 °F 11.5 °F 11% 30.26 in 10.0 mi North 12.7 mph - N/A   Clear
6:35 PM 66.7 °F 11.3 °F 12% 30.27 in 10.0 mi North 10.4 mph - N/A   Clear
6:55 PM 65.3 °F 11.7 °F 12% 30.28 in 10.0 mi North 8.1 mph - N/A   Clear
7:15 PM 63.5 °F 12.7 °F 14% 30.28 in 10.0 mi North 5.8 mph - N/A   Clear
7:35 PM 61.9 °F 13.6 °F 15% 30.28 in 10.0 mi North 5.8 mph - N/A   Clear
7:55 PM 60.4 °F 14.4 °F 17% 30.29 in 10.0 mi North 5.8 mph - N/A   Clear
8:15 PM 59.2 °F 14.5 °F 17% 30.29 in 10.0 mi North 4.6 mph - N/A   Clear
8:35 PM 58.6 °F 14.2 °F 17% 30.30 in 10.0 mi North 4.6 mph - N/A   Clear
8:55 PM 57.4 °F 14.5 °F 19% 30.31 in 10.0 mi North 4.6 mph - N/A   Clear
9:15 PM 55.8 °F 14.9 °F 20% 30.31 in 10.0 mi North 6.9 mph - N/A   Clear
9:35 PM 54.5 °F 15.3 °F 21% 30.31 in 10.0 mi NNW 5.8 mph - N/A   Clear
9:55 PM 53.4 °F 15.3 °F 22% 30.32 in 10.0 mi NNW 5.8 mph - N/A   Clear
10:15 PM 53.4 °F 14.9 °F 22% 30.32 in 10.0 mi NNW 5.8 mph - N/A   Clear
10:35 PM 52.2 °F 14.9 °F 23% 30.33 in 10.0 mi NNW 5.8 mph - N/A   Clear
10:55 PM 51.3 °F 14.9 °F 24% 30.33 in 10.0 mi North 3.5 mph - N/A   Clear
11:15 PM 50.9 °F 14.7 °F 24% 30.33 in 10.0 mi NNW 4.6 mph - N/A   Clear
11:35 PM 50.4 °F 14.5 °F 24% 30.33 in 10.0 mi NNW 5.8 mph - N/A   Clear
11:55 PM 50.2 °F 14.2 °F 24% 30.33 in 10.0 mi North 4.6 mph - N/A   Clear